sat.trackr.live / text

‹ back to catalog

STARLINK-5856

NORAD 55914 · 2023-037A

PAYLOAD ACTIVE UNKNOWN

§ Identity

Operator
Country
US
Launch date
2023-03-17
Launch site
AFWTR
Launch vehicle
Mass (kg)
RCS (m²)

Purposes: comms

External: N2YO · Heavens-Above · Gunter

§ Orbital elements

Epoch: 2026-09-20T11:55:17.540256Z

Period
96.11 min
Inclination
70.0007°
Eccentricity
0.0002907
Mean motion
14.98322397 rev/d
Perigee alt
570.1 km
Apogee alt
574.1 km
Semi-major
6,950.2 km
B*
-8.9688e-5
RAAN
173.4309°
Arg perigee
268.1324°
Mean anomaly
91.9502°
Rev number
19,335

§ Raw data

STARLINK-58561 55914U 23037A   26263.49673079 -.00001163  00000+0 -89688-4 0  99982 55914  70.0007 173.4309 0002907 268.1324  91.9502 14.98322397193356

JSON: /api/v1/satellites/55914 · /tle

For live sub-satellite position, see the globe view (requires WebGL).

§ Visibility from observer

Set your observer location to see the next 7 days of passes ≥ 10°. The values pass through the URL so the page stays shareable.

No JS? Fill the form by hand. The geolocation button needs JavaScript.